[[{"header":{"parameterUnit":"m.s-1","parameterCategory":1,"la1":30.2991,"la2":30.254,"lo1":-89.0895,"lo2":-89.0444,"dy":0.0017,"dx":0.0017,"nx":28,"ny":28,"refTime":"2025-11-15T03:00:00:Z","depth":0,"parameterNumber":2,"parameterNumberName":"U-component_of_WINDS"},"data":[0,0,0,0,0,0,0,0,0,0,0,0,0,0,0,0,0,0,0,0,0,0,0,0,0,0,0,0,0,0,0,0,0,0,0,0,0,0,0,0,0,0,0,0,0,0,0,0,0,0,0,0,0,0,0,0,0,0,3.0018,3.0019,0,3.0097,3.0098,3.0099,3.005,3.0048,3.0045,3.0043,3.0122,3.0126,3.013,0,0,0,0,0,0,0,0,0,0,0,0,0,2.9822,2.9826,3.0018,3.0019,3.002,3.0097,3.0098,3.0099,3.005,3.0048,3.0045,3.0042,3.0121,3.0126,3.0131,0,0,0,0,0,0,0,0,0,0,0,0,0,2.9905,2.9828,3.0018,3.0005,3.0005,3.0097,3.0098,3.01,3.0051,3.0048,3.0044,3.0041,3.0119,3.0125,3.0131,3.024,0,0,3.0151,3.0154,0,0,0,0,0,0,0,0,2.99,2.9912,3.0006,3.0006,3.0006,3.006,3.0058,3.0147,3.0052,3.0033,3.0043,3.0039,3.0104,3.0111,3.0134,3.0244,3.0247,3.0151,3.0155,3.0158,3.016,0,0,0,0,0,0,0,2.9895,2.9909,3.005,3.0008,3.0008,2.9995,3.0003,3.0075,3.0087,3.0035,3.0031,3.0042,3.0103,3.0128,3.0135,3.0248,3.0151,3.0157,3.0161,3.0163,3.045,3.0453,0,0,0,0,0,0,2.989,2.9904,3.0047,3.0052,2.9944,3.0001,3.001,3.0046,3.0086,3.0089,3.0044,3.0039,3.0119,3.0128,3.0138,3.0266,3.0158,3.0164,3.0168,3.0446,3.045,3.0454,0,0,0,0,0,0,2.9886,2.9904,3.0044,2.9977,2.9994,3.0008,3.005,3.005,3.0074,3.0094,3.0095,3.0067,3.0116,3.0129,3.0215,3.0268,3.0167,3.0173,3.0441,3.0447,3.0452,3.0525,0,0,0,0,0,0,2.9881,2.9903,2.9945,2.9979,2.9998,3.0121,3.0053,3.0054,3.0086,3.0079,3.0115,3.0118,3.0114,3.0206,3.0221,3.0275,3.0178,3.0437,3.0444,3.0451,3.0518,3.0533,3.0545,0,0,0,0,0,2.9874,2.9962,2.9947,2.9964,3.0051,3.0124,3.0135,3.0129,3.009,3.0132,3.0144,3.0117,3.0261,3.0215,3.0232,3.0289,3.0433,3.0442,3.045,3.0512,3.053,3.0545,0,0,0,0,0,0,2.9933,2.9966,2.995,3.0051,3.0085,3.0115,3.0168,3.0149,3.0194,3.0186,3.0177,3.0185,3.0275,3.029,3.0239,3.0395,3.034,3.0353,3.0382,3.0399,3.0412,3.0406,3.0183,0,0,0,0,0,2.9958,3.0015,3.0041,3.0127,3.0145,3.0154,3.0185,3.0179,3.0213,3.0227,3.0245,3.0279,3.0331,3.0366,3.0416,3.0521,3.0527,3.0568,3.0582,3.0593,3.0603,3.0658,3.0676,3.0482,3.0482,3.0482,0,0,3.0009,3.0035,3.0071,3.014,3.0165,3.0224,3.0166,3.0231,3.0273,3.0236,3.0318,3.0333,3.037,3.0466,3.0509,3.0482,3.0658,3.0604,3.0612,3.0617,3.0669,3.0687,3.0703,3.0488,3.0487,3.0486,0,0,3.0133,3.0159,3.0233,3.026,3.0299,3.0305,3.0323,3.0356,3.0365,3.0447,3.042,3.047,3.0562,3.0588,3.0614,3.0748,3.0724,3.0765,3.0835,3.0889,3.0904,3.0917,3.0963,3.098,3.0775,3.0775,3.0775,0,3.0192,3.028,3.0274,3.034,3.0371,3.0341,3.0415,3.0441,3.0495,3.0516,3.0485,3.0598,3.0621,3.0722,3.0754,3.0777,3.0796,3.076,3.0902,3.0916,3.0928,3.0972,3.099,3.078,3.0779,3.0779,3.0778,0,3.0349,3.0411,3.0466,3.0519,3.0556,3.0626,3.063,3.0668,3.0658,3.0666,3.0749,3.0776,3.0829,3.0853,3.0844,3.0953,3.0934,3.0904,3.0848,3.0951,3.0992,3.1009,3.0786,3.0785,3.0783,3.0782,0,0,3.0511,3.056,3.058,3.0603,3.0645,3.0692,3.076,3.0813,3.0845,3.0883,3.0939,3.1017,3.0989,3.1018,3.1012,3.1059,3.1161,3.1022,3.1023,3.1045,3.1281,3.1302,3.1322,3.1146,3.115,3.1152,3.1277,0,3.0636,3.0756,3.0753,3.0864,3.092,3.0892,3.0952,3.0983,3.0993,3.104,3.105,3.1105,3.1064,3.1081,3.1127,3.1139,3.1208,3.1131,3.1197,3.1199,3.1187,3.1344,3.1367,3.1483,3.1293,3.1296,3.1298,0,3.0797,3.0841,3.0958,3.0991,3.1014,3.1068,3.1115,3.1162,3.1197,3.12,3.1233,3.1219,3.1287,3.1231,3.1324,3.1271,3.1298,3.1308,3.1313,3.1317,3.1253,3.135,3.152,3.1537,3.1323,3.1321,3.1319,0,3.0901,3.0989,3.1071,3.1092,3.1132,3.117,3.1189,3.122,3.1252,3.1294,3.1314,3.1364,3.139,3.1428,3.1427,3.1387,3.1521,3.1465,3.1524,3.1524,3.1552,3.155,3.1726,3.1573,3.1573,3.1572,3.1572,0,3.1039,3.1112,3.1118,3.1167,3.1247,3.1243,3.1322,3.1336,3.1364,3.1415,3.1395,3.1443,3.144,3.1489,3.1489,3.1564,3.1577,3.1581,3.1579,3.1581,3.1581,3.1597,3.1589,3.1577,3.1576,3.1575,3.1574,0,3.1168,3.1175,3.1262,3.1293,3.1303,3.136,3.1386,3.1433,3.1441,3.1506,3.1521,3.1533,3.1589,3.1593,3.1658,3.1657,3.1749,3.174,3.1737,3.1735,3.1793,3.1787,3.1985,3.201,3.1843,3.1844,3.1845,0,3.1255,3.131,3.1347,3.1381,3.1402,3.1456,3.1488,3.1486,3.152,3.1564,3.1605,3.1659,3.1702,3.1793,3.1807,3.1856,3.1847,3.1913,3.1854,3.1854,3.1845,3.1841,3.1845,3.1924,3.1926,3.1927,3.1928,0,3.1407,3.1408,3.1457,3.1506,3.1546,3.1585,3.1621,3.1649,3.1651,3.1691,3.1749,3.1782,3.1848,3.1902,3.195,3.1967,3.1948,3.1947,3.1963,3.1964,3.196,3.1961,3.1767,3.1942,3.1941,3.194,3.1939,3.1938,3.1516,3.1563,3.1597,3.1651,3.1679,3.1713,3.1758,3.1772,3.182,3.1874,3.187,3.1933,3.1966,3.2028,3.205,3.2098,3.2076,3.2099,3.2105,3.211,3.2115,3.1954,3.2107,3.2107,3.2107,3.2106,3.2106,0,3.1666,3.1686,3.1737,3.1788,3.1831,3.181,3.1849,3.1885,3.1942,3.1974,3.2017,3.2083,3.2135,3.2153,3.2203,3.2238,3.223,3.2251,3.2247,3.2252,3.2134,3.2114,3.2257,3.2257,3.2257,3.2257,3.2257,3.2257,3.1748,3.1826,3.1832,3.1923,3.1943,3.2005,3.2029,3.206,3.2085,3.216,3.2203,3.2215,3.2242,3.2294,3.234,3.2344,3.2362,3.2386,3.2386,3.2275,3.226,3.2245,3.2227,3.2391,3.2391,3.25,3.2501,3.2502]},{"header":{"parameterUnit":"m.s-1","parameterCategory":1,"la1":30.2991,"la2":30.254,"lo1":-89.0895,"lo2":-89.0444,"dy":0.0017,"dx":0.0017,"nx":28,"ny":28,"refTime":"2025-11-15T03:00:00:Z","depth":0,"parameterNumber":3,"parameterNumberName":"V-component_of_WINDS"},"data":[0,0,0,0,0,0,0,0,0,0,0,0,0,0,0,0,0,0,0,0,0,0,0,0,0,0,0,0,0,0,0,0,0,0,0,0,0,0,0,0,0,0,0,0,0,0,0,0,0,0,0,0,0,0,0,0,0,0,2.2173,2.2173,0,2.2196,2.2196,2.2196,2.2187,2.2186,2.2185,2.2185,2.2206,2.2207,2.2208,0,0,0,0,0,0,0,0,0,0,0,0,0,2.2117,2.2118,2.2173,2.2173,2.2173,2.2196,2.2196,2.2196,2.2187,2.2186,2.2185,2.2185,2.2206,2.2207,2.2209,0,0,0,0,0,0,0,0,0,0,0,0,0,2.2141,2.2118,2.2173,2.2171,2.2171,2.2196,2.2196,2.2196,2.2187,2.2186,2.2185,2.2184,2.2206,2.2207,2.2209,2.2235,0,0,2.2214,2.2214,0,0,0,0,0,0,0,0,2.2139,2.2143,2.2171,2.2171,2.2171,2.2187,2.2184,2.2209,2.2187,2.2181,2.2185,2.2184,2.2201,2.2203,2.2209,2.2236,2.2237,2.2214,2.2215,2.2216,2.2216,0,0,0,0,0,0,0,2.2138,2.2142,2.2182,2.2171,2.2172,2.2168,2.2171,2.2189,2.2195,2.2181,2.2181,2.2184,2.22,2.2207,2.2209,2.2237,2.2214,2.2215,2.2216,2.2217,2.2286,2.2287,0,0,0,0,0,0,2.2136,2.214,2.2181,2.2182,2.2153,2.217,2.2173,2.2183,2.2195,2.2196,2.2184,2.2183,2.2205,2.2207,2.221,2.2241,2.2215,2.2217,2.2218,2.2285,2.2286,2.2287,0,0,0,0,0,0,2.2135,2.214,2.218,2.2161,2.2166,2.2172,2.2184,2.2184,2.2191,2.2197,2.2198,2.219,2.2204,2.2207,2.2229,2.2241,2.2218,2.2219,2.2284,2.2286,2.2287,2.2303,0,0,0,0,0,0,2.2134,2.214,2.2151,2.2162,2.2167,2.22,2.2184,2.2185,2.2194,2.2192,2.2203,2.2204,2.2204,2.2226,2.223,2.2243,2.222,2.2283,2.2285,2.2286,2.2302,2.2305,2.2308,0,0,0,0,0,2.2132,2.2154,2.2152,2.2156,2.2181,2.2201,2.2204,2.2204,2.2195,2.2205,2.2209,2.2203,2.2239,2.2229,2.2233,2.2246,2.2282,2.2284,2.2286,2.23,2.2304,2.2308,0,0,0,0,0,0,2.2145,2.2156,2.2153,2.218,2.2189,2.2199,2.2212,2.2208,2.222,2.2218,2.2218,2.222,2.2242,2.2246,2.2234,2.2272,2.2259,2.2262,2.2268,2.2272,2.2275,2.2274,2.2222,0,0,0,0,0,2.2151,2.2166,2.2175,2.2198,2.2203,2.2207,2.2215,2.2214,2.2224,2.2228,2.2233,2.2242,2.2255,2.2264,2.2277,2.2302,2.2303,2.2313,2.2316,2.2319,2.2321,2.2334,2.2338,2.2294,2.2294,2.2294,0,0,2.2163,2.2171,2.2181,2.22,2.2208,2.2223,2.221,2.2227,2.2238,2.223,2.2251,2.2255,2.2264,2.2288,2.2298,2.2292,2.2334,2.2321,2.2323,2.2324,2.2336,2.234,2.2344,2.2295,2.2295,2.2295,0,0,2.2194,2.2202,2.2221,2.2229,2.224,2.2242,2.2247,2.2257,2.2259,2.228,2.2274,2.2286,2.2309,2.2316,2.2323,2.2354,2.2349,2.2358,2.2374,2.2386,2.239,2.2393,2.2403,2.2407,2.236,2.236,2.236,0,2.2208,2.2231,2.2231,2.2248,2.2256,2.225,2.2269,2.2276,2.2291,2.2296,2.2289,2.2317,2.2323,2.2347,2.2355,2.2361,2.2365,2.2357,2.2389,2.2392,2.2395,2.2405,2.2409,2.2361,2.2361,2.2361,2.2361,0,2.2247,2.2263,2.2277,2.2292,2.2301,2.2319,2.2321,2.233,2.2329,2.2331,2.2351,2.2358,2.2372,2.2377,2.2376,2.2401,2.2397,2.239,2.2377,2.2401,2.241,2.2414,2.2363,2.2363,2.2362,2.2362,0,0,2.2287,2.2301,2.2306,2.2312,2.2323,2.2335,2.2352,2.2365,2.2373,2.2383,2.2396,2.2415,2.2408,2.2416,2.2414,2.2425,2.2448,2.2417,2.2417,2.2422,2.2475,2.248,2.2485,2.2445,2.2446,2.2446,2.2474,0,2.2318,2.2348,2.2348,2.2376,2.239,2.2383,2.2398,2.2406,2.2408,2.242,2.2422,2.2435,2.2426,2.243,2.2441,2.2443,2.2459,2.2441,2.2456,2.2457,2.2454,2.249,2.2495,2.2521,2.2478,2.2478,2.2479,0,2.2358,2.2369,2.2398,2.2406,2.2412,2.2425,2.2437,2.2448,2.2456,2.2457,2.2465,2.2462,2.2477,2.2464,2.2486,2.2474,2.2479,2.2482,2.2483,2.2484,2.2469,2.2491,2.253,2.2533,2.2485,2.2484,2.2484,0,2.2383,2.2406,2.2425,2.2431,2.2441,2.245,2.2454,2.2462,2.2469,2.2479,2.2484,2.2495,2.2501,2.251,2.2509,2.25,2.253,2.2517,2.253,2.253,2.2537,2.2537,2.2577,2.2542,2.2542,2.2542,2.2542,0,2.2417,2.2435,2.2437,2.2449,2.2468,2.2467,2.2486,2.2489,2.2496,2.2508,2.2503,2.2514,2.2513,2.2524,2.2523,2.254,2.2543,2.2543,2.2543,2.2544,2.2544,2.2547,2.2545,2.2543,2.2542,2.2542,2.2542,0,2.2449,2.2451,2.2472,2.248,2.2482,2.2495,2.2501,2.2512,2.2514,2.2529,2.2532,2.2535,2.2547,2.2547,2.2562,2.2561,2.2582,2.258,2.2579,2.2579,2.2591,2.259,2.2635,2.264,2.2603,2.2603,2.2603,0,2.2471,2.2484,2.2493,2.2501,2.2506,2.2518,2.2526,2.2525,2.2533,2.2542,2.2552,2.2564,2.2573,2.2593,2.2596,2.2606,2.2604,2.2619,2.2605,2.2605,2.2603,2.2602,2.2603,2.2621,2.2622,2.2622,2.2623,0,2.2508,2.2508,2.252,2.2531,2.254,2.2549,2.2557,2.2564,2.2563,2.2572,2.2585,2.2593,2.2607,2.2618,2.2628,2.2632,2.2627,2.2627,2.263,2.2631,2.263,2.263,2.2586,2.2626,2.2625,2.2625,2.2625,2.2625,2.2535,2.2546,2.2554,2.2566,2.2572,2.258,2.259,2.2593,2.2603,2.2615,2.2614,2.2627,2.2634,2.2647,2.2651,2.2661,2.2656,2.2661,2.2662,2.2664,2.2665,2.2628,2.2663,2.2663,2.2663,2.2663,2.2663,0,2.2572,2.2576,2.2587,2.2599,2.2608,2.2603,2.2611,2.2619,2.2632,2.2638,2.2648,2.2661,2.2672,2.2675,2.2686,2.2693,2.2691,2.2696,2.2695,2.2696,2.2669,2.2665,2.2697,2.2697,2.2697,2.2697,2.2697,2.2697,2.2592,2.261,2.2611,2.2631,2.2635,2.2649,2.2654,2.266,2.2665,2.2681,2.269,2.2692,2.2697,2.2707,2.2717,2.2717,2.2721,2.2726,2.2726,2.2701,2.2698,2.2694,2.269,2.2727,2.2727,2.2751,2.2752,2.2752]}]]